Regional Weather Roundup
Issued by NWS

Home | Current Version | Previous Version | Graphics & Text | Print | Product List | Glossary On
Versions: 1 2 3 4 5 6 7 8 9 10 11 12 13 14 15 16 17 18 19 20 21 22 23 24 25 26 27 28 29 30 31 32 33 34 35 36 37 38 39 40 41 42 43 44 45 46 47 48 49 50
450
ASUS43 KLMK 161010
RWRKY
KENTUCKY REGIONAL WEATHER ROUNDUP
NATIONAL WEATHER SERVICE LOUISVILLE KY
500 AM EST MON JAN 16 2017

NOTE "FAIR" INDICATES FEW OR NO CLOUDS BELOW 12,000 FEET
WITH NO SIGNIFICANT WEATHER AND/OR OBSTRUCTIONS TO VISIBILITY.

KYZ001>023-026-027-061>063-070>075-161100-
WESTERN AND SOUTH CENTRAL KENTUCKY

CITY           SKY/WX    TMP DP  RH WIND       PRES   REMARKS
PADUCAH        FOG       44  42  93 E7        30.17F VSB 1/2
HENDERSON      CLOUDY    41  37  87 E3        30.21S
OWENSBORO      CLOUDY    43  43 100 E3        30.22F
HOPKINSVILLE   FOG       45  45 100 SE6       30.20F VSB 1/2
BOWLING GREEN  FOG       45  44  97 E5        30.23F VSB 1/4
GLASGOW        CLOUDY   N/A N/A N/A CALM      30.23S HAZE
$$

KYZ024-025-028>034-038-045-046-053-161100-
NORTH CENTRAL KENTUCKY

CITY           SKY/WX    TMP DP  RH WIND       PRES   REMARKS
LOUISVILLE/SDF CLOUDY    43  39  86 E3        30.25F
LOUISVILLE/LOU CLOUDY    43  40  89 E3        30.25F
FORT KNOX      FOG       41  41 100 NE6       30.21F VSB 1/2
$$

KYZ035>037-039>044-047>052-055>060-089>105-161100-
NORTHEAST KENTUCKY

CITY           SKY/WX    TMP DP  RH WIND       PRES   REMARKS
LEXINGTON      CLOUDY    42  40  92 E6        30.25F
COVINGTON      FOG       38  38 100 E7        30.26F VSB 1/2 WCI  33
FRANKFORT      CLOUDY    42  38  85 E6        30.24F
$$

KYZ054-064>069-076>088-106>120-161100-
SOUTHEAST KENTUCKY

CITY           SKY/WX    TMP DP  RH WIND       PRES   REMARKS
JACKSON        FOG       41  39  93 NE3       30.26F VSB 1/4
LONDON         FOG       46  44  93 CALM      30.25F VSB 1/2
SOMERSET       FOG       45  45 100 CALM      30.27S VSB 3/4
MIDDLESBORO    FOG       50  50 100 CALM      30.27R VSB 1/2
MONTICELLO     CLOUDY    46  46 100 W8        30.26F
$$





USA.gov is the U.S. government's official web portal to all federal, state and local government web resources and services.